Miscellaneous Local Product
Issued by NWS North Platte, NE

Home | Current Version | Previous Version | Text Only | Print | Product List | Glossary On
Versions: 1 2 3 4 5 6 7 8 9 10 11 12 13 14 15 16 17 18 19 20 21 22 23 24 25 26 27 28 29 30 31 32 33 34 35 36 37 38 39 40 41 42 43 44 45 46 47 48 49 50
767
AXUS43 KLBF 240910
MISLBF


WESTERN AND NORTH CENTRAL NEBRASKA HOURLY WEATHER ROUNDUP
NATIONAL WEATHER SERVICE NORTH PLATTE NE
400 AM CDT THU AUG 24 2017

NOTE: "FAIR" INDICATES FEW OR NO CLOUDS BELOW 12,000 FEET WITH NO
SIGNIFICANT WEATHER AND/OR OBSTRUCTIONS TO VISIBILITY.

NOTE: STATIONS NOT REPORTING VARIABLES SUCH AS SKY/WEATHER OR
PRESSURE ARE PROVIDED BY RAWS AND APRS NETWORKS AND ARE NOT UNDER
NATIONAL WEATHER SERVICE QUALITY CONTROL.

...OBSERVATIONS IN AND NEAR THE EASTERN PANHANDLE OF NEBRASKA...

CITY           SKY/WX    TMP DP  RH WIND       PRES   REMARKS
PINE RIDGE     CLOUDY    63  61  93 NE7       29.97S
GORDON         FAIR      68  60  76 CALM      29.98R
CHADRON        CLOUDY    63  54  72 W3        29.97S
ALLIANCE       MOCLDY    60  55  83 NW3       29.99F
SIDNEY         CLOUDY    63  52  67 E3        30.04R
$$

...OBSERVATIONS IN NORTHERN NEBRASKA AND FAR SOUTHERN SOUTH DAKOTA...

CITY           SKY/WX    TMP DP  RH WIND       PRES   REMARKS
WINNER         FAIR      68  62  81 NW7       29.91S
VALENTINE      CLOUDY    69  55  60 W3        29.94R
THEDFORD       PTCLDY    65  52  61 NW5       30.00R
AINSWORTH      CLOUDY    66  51  58 SW9       29.95F
O`NEILL        PTCLDY    66  55  68 S9        29.94F
ORD            CLEAR     62  52  69 S8        29.97F
BROKEN BOW     CLEAR     66  51  58 S9        29.99S
HALSEY           N/A     68  47  47 S8G16       N/A
BUTTE            N/A     64  55  73 SW7         N/A
CHAMBERS         N/A     64  53  68 SW10        N/A
EWING            N/A     64  55  74 S7          N/A
$$

...OBSERVATIONS IN SOUTHWEST NEBRASKA AND FAR NORTHEAST COLORADO...

CITY           SKY/WX    TMP DP  RH WIND       PRES   REMARKS
WRAY           FAIR      66  59  77 SW9       30.03S
HOLYOKE        FAIR      59  54  82 CALM      30.03R
IMPERIAL       CLOUDY    67  61  81 S12       30.00S
OGALLALA       CLOUDY    64  61  90 SW3       29.99R
NORTH PLATTE   CLEAR     68  57  68 VRB5      29.97F
MCCOOK         CLEAR     66  54  65 S8        30.01R
LEXINGTON      CLEAR     64  51  60 S8        30.00F
STAPLETON        N/A     61  51  70 SW3         N/A
GOTHENBURG       N/A     68  47  47 S7          N/A
CALLAWAY         N/A     62  53  72 S12         N/A
$$

...OBSERVATIONS IN CENTRAL LINCOLN COUNTY AREA...

CITY           SKY/WX    TMP DP  RH WIND       PRES   REMARKS
N.P. AIRPORT   CLEAR     68  57  68 VRB5      29.97F
N.P. DOWNTOWN    N/A     67  57  71 CALM        N/A
N.P. SOUTHEAST   N/A     66  56  70 S3          N/A
N.P. HILLCREST   N/A     66  57  73 SE6         N/A
$$

...SOME OBSERVATIONS FROM AROUND THE REGION...

CITY           SKY/WX    TMP DP  RH WIND       PRES   REMARKS
DENVER         CLOUDY    62  46  55 S10       30.10F
LIMON          CLOUDY    54  52  93 CALM      30.13F
ASPEN          CLOUDY    50  41  71 S6        30.30F
LARAMIE        CLOUDY    50  44  80 SE7       30.24S
CASPER         CLOUDY    67  42  40 SW13      30.06S
CHEYENNE       CLOUDY    60  44  55 SW5       30.15S
SCOTTSBLUFF    CLOUDY    64  52  64 NE3       30.00S
GRAND ISLAND   CLEAR     62  55  77 S14       30.00F
OMAHA          MOCLDY    66  58  75 SE8       30.03R
SIOUX FALLS    CLOUDY    67  59  75 S12       29.98S
PIERRE         CLEAR     59  58  96 NE7       29.90S
RAPID CITY     CLEAR     59  54  83 NE5       30.00R
BISMARCK       CLEAR     58  56  93 E10       29.98S
KANSAS CITY    CLEAR     63  58  83 S3        30.07R
HILL CITY      PTCLDY    65  53  65 S6        30.03S
WICHITA        CLOUDY    62  55  77 E7        30.05F
DODGE CITY     PTCLDY    64  53  67 S12       30.08S
OKLAHOMA CITY  CLOUDY    66  59  78 E3        30.02F
DALLAS         TSTM      76  74  93 N6        29.93S FOG
AMARILLO       CLOUDY    67  66  97 SE12      30.11F
$$




USA.gov is the U.S. government's official web portal to all federal, state and local government web resources and services.